{"data":{"norad_id":43539,"intl_designator":"2018-057A","name":"BEIDOU-2 IGSO-7 (C16)","alt_names":[],"object_type":"PAYLOAD","status":"ACTIVE","operator":null,"country":"PRC","launch_date":"2018-07-09","launch_site_code":"XICLF","launch_vehicle":null,"mission":null,"orbit_class":"UNKNOWN","rcs_meters":null,"size_class":null,"mass_kg":null,"dimensions":null,"purposes":["comms","nav"],"wikipedia_slug":null,"has_3d_model":false,"image_url":null,"decayed_at":null,"tle_current":{"epoch":"2026-05-24T23:08:31.200864Z","epoch_age_seconds":71444,"freshness":"FRESH","line1":"1 43539U 18057A   26144.96425001 -.00000014  00000+0  00000+0 0  9993","line2":"2 43539  55.1903 163.2595 0104267 237.9351 300.0258  1.00257887 28893","mean_motion":1.00257887,"eccentricity":0.0104267,"inclination_deg":55.1903,"raan_deg":163.2595,"arg_perigee_deg":237.9351,"mean_anomaly_deg":300.0258,"bstar":0,"rev_number":2889,"period_min":1436.2959793876,"perigee_km":35350.811886127,"apogee_km":36230.171164213,"semimajor_km":42168.62852517,"source":"CELESTRAK","updated_at":"2026-05-25T13:38:24.218493Z"}}}